This is the latest recevied weather packets stored in our database for station/object K7LDN-13. If no packets are shown the sender has not sent any weather packets the latest 10 day(s).
| Time | Temp. | Humidity | Pressure | Rain* | Wind** | Luminosity | Snow |
|---|---|---|---|---|---|---|---|
| 1777708871 | 8.89° C | 47% | 1023.4 hPa | 0 mm | - | 0 W/m² | - |
| 1777708569 | 8.89° C | 47% | 1023.4 hPa | 0 mm | - | 0 W/m² | - |
| 1777708267 | 8.89° C | 47% | 1023.4 hPa | 0 mm | - | 0 W/m² | - |
| 1777707964 | 8.89° C | 47% | 1023.3 hPa | 0 mm | - | 0 W/m² | - |
| 1777707660 | 8.89° C | 48% | 1023.3 hPa | 0 mm | - | 0 W/m² | - |
| 1777707356 | 8.89° C | 46% | 1023.5 hPa | 0 mm | - | 0 W/m² | - |
| 1777707053 | 8.89° C | 47% | 1023.5 hPa | 0 mm | - | 0 W/m² | - |
| 1777706750 | 8.89° C | 46% | 1023.5 hPa | 0 mm | - | 0 W/m² | - |
| 1777706449 | 8.89° C | 46% | 1023.6 hPa | 0 mm | - | 0 W/m² | - |
| 1777706146 | 8.89° C | 47% | 1023.3 hPa | 0 mm | - | 0 W/m² | - |
| 1777705844 | 8.89° C | 49% | 1023.5 hPa | 0 mm | - | 0 W/m² | - |
| 1777705542 | 9.44° C | 46% | 1023.5 hPa | 0 mm | - | 0 W/m² | - |
| 1777705240 | 9.44° C | 46% | 1023.3 hPa | 0 mm | - | 0 W/m² | - |
| 1777704938 | 9.44° C | 47% | 1023.4 hPa | 0 mm | - | 0 W/m² | - |
| 1777704635 | 9.44° C | 47% | 1023.4 hPa | 0 mm | - | 0 W/m² | - |
| 1777704334 | 9.44° C | 46% | 1023.2 hPa | 0 mm | - | 0 W/m² | - |
| 1777704030 | 9.44° C | 47% | 1023.5 hPa | 0 mm | - | 0 W/m² | - |
| 1777703728 | 9.44° C | 46% | 1023.3 hPa | 0 mm | - | 0 W/m² | - |
| 1777703426 | 9.44° C | 45% | 1023.3 hPa | 0 mm | - | 0 W/m² | - |
| 1777703122 | 10° C | 45% | 1023.5 hPa | 0 mm | - | 0 W/m² | - |
| 1777702821 | 10° C | 45% | 1023.4 hPa | 0 mm | - | 0 W/m² | - |
| 1777702518 | 10° C | 44% | 1023.3 hPa | 0 mm | - | 0 W/m² | - |
| 1777702215 | 10° C | 44% | 1023.2 hPa | 0 mm | - | 0 W/m² | - |
| 1777701910 | 10° C | 44% | 1023.3 hPa | 0 mm | - | 0 W/m² | - |
| 1777701608 | 10.56° C | 43% | 1023.2 hPa | 0 mm | - | 0 W/m² | - |
* Rain latest hour (hover to see other rain measurements)
** Current wind speed in m/s (hover to see current wind gust speed)